COSMOS 1275 DEB, 42217

Orbit data source: Space-Track

COSMOS 1275 DEB, 42217 is space debris in LEO originally from a launch on Thu, 04 Jun 1981 UTC launched from the Plesetsk Missile And Space Complex (PKMTR). Debris objects in space refer to the collection of defunct objects orbiting the Earth. Examples of debris include non-operational satellites, rocket bodies, and fragments generated from explosions, collisions, or faulty payload assembly.

Loading next visibility...
Identifier
42217, 1981-053UH
Orbit
LEO
Country
Flag of CISCIS
Related business
Manufacturer
Unknown
Mission
Spacecraft
Bus & Motor
Unknown
Mass
Unknown
Launch date (UTC)
1981-06-04 (45 years ago)
Launch vehicle
Unknown
Launch site
Plesetsk Missile And Space Complex (PKMTR)
Object type
Payload
Rocket body
Debris
Shape & HBR
Unknown shape, 0.1 m
Radar Cross Section
Small (<0.1 m²)

Expand to show TLE details & history
Last TLE update: 3 days ago

TLE from 3 days ago
0 COSMOS 1275 DEB
1 42217U 81053UH  26170.52805021  .00000802  00000-0  84322-3 0  9994
2 42217  83.0325   6.9625 0119451 233.5028 154.7131 13.70749396627467
Epoch: 2026-06-19T12:40Z
TLE epoch observation values (Epoch: 2026-06-19T12:40:23.538Z)
Latitude
28.60332°
Longitude
-87.08991°
Altitude
1,080.266 km
Speed
7.275 km/s
True Right ascension
00h 43m 03s
True Declination
28° 27' 55"
Sunlit
Object was in daylight at epoch
Visualization orbit readout
Latitude
Unknown
Longitude
Unknown
Altitude
Unknown
Speed
Unknown
Apparent Right ascension
Unknown
Apparent Declination
Unknown
Sunlit
N/A
Visualization observer readout
Local Sidereal Time
23:27:05
Azimuth
Unknown
Elevation
Unknown
Doppler factor
Unknown
Orbital elements
Apogee altitude
1,082.094 km
Perigee altitude
905.971 km
Semi-major axis
7,372.17 km
Eccentricity
0.01195
Inclination
83.0325°
RAAN
6.9625°
Arg. of periapsis
233.5028°
True anomaly
155.28999°
Mean anomaly
154.7131°
Eccentric anomaly
155.00232°
Mean motion
3.42886 °/min
Orbital period
104.99 mins
BSTAR
0.00084322
Loading maneuver chart data...
Computing Atmospheric mass density...

Documentation

Showing up to 5 results
|